Погода в Силвише

Португалия     37°11′14″N   8°26′15″W
темп.,
°C
ветер,
м/с
пор.,
м/с
влажн.,
%
обл.,
%
осадки,
мм/ч
давл.,
гПа
погр.,
м
19 апреля, пн
пн1901:00+12ссз228094 0.0 102039
04:00+11ссз2279100 0.0 101932
07:00+10с228463 0.0 101927
10:00+18ссз224410 0.0 1019613
13:00+22зюз233575 0.0 10181448
16:00+22сз65340 0.0 10171279
19:00+18сз48481 0.0 1017638
22:00+12ссз368560 0.0 1019159
20 апреля, вт
вт2001:00+11ссз34957 0.0 101893
04:00+11ссз229735 0.0 101755
07:00+12ссз248838 0.0 1017253
10:00+17ссз346731 0.0 1017895
13:00+21сз454697 0.0 10161565
16:00+21сз6646100 0.0 10151483
19:00+17сз576310 0.0 1015869
22:00+12ссз249599 0.0 1017114
21 апреля, ср
ср2101:00+11ссз2396100 0.0 101675
04:00+11ссз239631 0.0 101576
07:00+12сз229480 0.0 101552
10:00+17зсз1265100 0.0 1015799
13:00+21з4548100 0.0 10141441
16:00+20зсз5653100 0.0 10131076
19:00+17сз4668100 0.0 1014783
22:00+13сз1293100 0.0 101641
22 апреля, чт
чт2201:00+13сз1195100 0.0 101622
04:00+13зсз1196100 0.0 101420
07:00+13зюз0096100 0.0 101516
10:00+17ю2272100 0.0 1015633
13:00+20ю4464100 0.0 10141024
16:00+19ююз5565100 0.0 1013995
19:00+17ююз4577100 0.0 1013590
22:00+15ю3695100 0.0 1014193
23 апреля, пт
пт2301:00+15ю3797100 0.5 1012365
04:00+15ююз4898100 6.6 1011578
07:00+15ююз1294100 8.9 101173
10:00+17юз338043 0.4 1013667
13:00+20ююз456222 1.3 10131197
16:00+21юз55490 0.1 10121548
19:00+18з45600 0.1 1013844
22:00+13зсз22920 0.0 101441